Flag for Canada Weather past 2 weeks in Kamloops, British Columbia, Canada

Now
81 °F

Sunny.


Feels Like: 79 °F
Forecast: 59 / 87 °F
Wind: 6 mph from North

Location: Kamloops

Current Time: Jul 5, 2015 at 1:13:08 PM

Latest Report: Jul 5, 2015 at 12:00 PM


Visibility: 40 mi

Pressure: 29.99 "Hg

Humidity: 24%

Dew point: 41 °F

Location of KamloopsLocation

Historic Weather in Kamloops — Graph

°F

Kamloops temperature yesterday

Maximum temperature yesterday: 90 °F (at 2:00 PM)
Minimum temperature yesterday: 61 °F (at 5:00 AM)
Average temperature yesterday: 77 °F

Past Weeks' High & Low Weather Summary

 TemperatureHumidityPressure
High100 °F (Jun 27, 5:00 PM)94% (Jun 30, 12:00 AM)30.16 "Hg (Jun 30, 12:00 AM)
Low48 °F (Jun 21, 1:00 AM)12% (Jun 27, 5:00 PM)29.75 "Hg (Jul 3, 7:00 PM)
Average75 °F45%29.97 "Hg
* Reported Jun 20 12:00 Noon — Jul 5 12:00 Noon, Kamloops, Weather by CustomWeather, © 2015

Note: Actual official high and low records may vary slightly from our data, if they occured in-between our weather recording intervals... More about our weather records

Advertising

Kamloops weather history for previous 24 hours

 ConditionsComfort  
Time TempWeatherWind HumidityBarometerVisibility
12:00 PM
Sun, Jul 5
81 °FSunny.6 mph24%29.99 "Hg40 mi
11:00 AM77 °FSunny.5 mph28%30.01 "Hg40 mi
10:00 AM75 °FSunny.12 mph31%30.02 "Hg40 mi
9:00 AM72 °FSunny.15 mph38%30.03 "Hg40 mi
8:00 AM70 °FSunny.15 mph38%30.03 "Hg40 mi
7:00 AM68 °FSunny.9 mph40%30.02 "Hg40 mi
6:00 AM64 °FSunny.9 mph43%30.01 "Hg40 mi
5:00 AM66 °FPassing clouds.13 mph40%29.99 "Hg40 mi
4:00 AM66 °FClear.12 mph43%29.97 "Hg40 mi
3:00 AM68 °FClear.10 mph40%29.96 "Hg40 mi
2:00 AM70 °FClear.13 mph35%29.94 "Hg40 mi
1:00 AM72 °FClear.13 mph31%29.94 "Hg40 mi
12:00 AM73 °FPassing clouds.6 mph33%29.94 "Hg40 mi
11:00 PM
Sat, Jul 4
72 °FPassing clouds.10 mph33%29.92 "Hg40 mi
10:00 PM77 °FPartly sunny.13 mph26%29.91 "Hg40 mi
9:00 PM77 °FScattered clouds.13 mph28%29.88 "Hg40 mi
8:00 PM82 °FScattered clouds.13 mph19%29.87 "Hg40 mi
7:00 PM86 °FScattered clouds.16 mph13%29.85 "Hg40 mi
6:00 PM88 °FPassing clouds.13 mph15%29.84 "Hg40 mi
5:00 PM88 °FPassing clouds.16 mph15%29.83 "Hg40 mi
4:00 PM90 °FPassing clouds.16 mph13%29.84 "Hg40 mi
3:00 PM88 °FPassing clouds.20 mph13%29.85 "Hg40 mi
2:00 PM90 °FScattered clouds.14 mph14%29.85 "Hg40 mi
1:00 PM88 °FScattered clouds.12 mph17%29.86 "Hg40 mi
Weather by CustomWeather, © 2015

See weather overviewHow to use our weather pages